Regional Weather Roundup
Issued by NWS

Home | Current Version | Previous Version | Text Only | Print | Product List | Glossary On
Versions: 1 2 3 4 5 6 7 8 9 10 11 12 13 14 15 16 17 18 19 20 21 22 23 24 25 26 27 28 29 30 31 32 33 34 35 36 37 38 39 40 41 42 43 44 45 46 47 48 49 50
000
ASUS44 KFWD 231215
RWRTX
NORTH TEXAS HOURLY WEATHER ROUNDUP
NATIONAL WEATHER SERVICE FORT WORTH TX
600 AM CST MON JAN 23 2017

NOTE: "FAIR" INDICATES FEW OR NO CLOUDS BELOW 12,000 FEET WITH NO
SIGNIFICANT WEATHER AND/OR OBSTRUCTIONS TO VISIBILITY.

TXZ118-119-231300-
DALLAS/FORT WORTH METROPLEX

CITY           SKY/WX    TMP DP  RH WIND       PRES   REMARKS
DFW AIRPORT    CLEAR     42  34  73 NW5       29.96R WCI  39
6HR MIN TEMP:  41; 6HR MAX TEMP:  50;

DALLAS LOVE    CLEAR     44  33  65 W5        29.97R
6HR MIN TEMP:  43; 6HR MAX TEMP:  52;

FTW MEACHAM    CLEAR     42  34  73 CALM      29.98R
6HR MIN TEMP:  42; 6HR MAX TEMP:  49;

DAL-EXECUTIVE  CLEAR     43  33  68 NW7       29.97R WCI  39
6HR MIN TEMP:  40; 6HR MAX TEMP:  50;

FTW-ALLIANCE   CLOUDY    36  30  79 W6        29.98R WCI  31
6HR MIN TEMP:  34; 6HR MAX TEMP:  49;

FTW-NAS-JRB    CLEAR     42  33  70 NW3       29.99R
6HR MIN TEMP:  41; 6HR MAX TEMP:  51;

FTW-SPINKS     CLEAR     41  34  76 W7        30.00R WCI  36
6HR MIN TEMP:  39; 6HR MAX TEMP:  47;

ARLINGTON      CLEAR     40  32  73 W3        29.98R
6HR MIN TEMP:  40; 6HR MAX TEMP:  50;

MESQUITE       CLEAR     42  32  69 NW6       29.96R WCI  38
6HR MIN TEMP:  42; 6HR MAX TEMP:  52;

LANCASTER      CLEAR     40  32  73 W6        29.98R WCI  36
6HR MIN TEMP:  38; 6HR MAX TEMP:  51;

$$

TXZ091>094-102>105-117-120-121-131>134-231300-
NORTH CENTRAL TEXAS

CITY           SKY/WX    TMP DP  RH WIND       PRES   REMARKS
SHRMAN/DENISON CLEAR     39  33  78 CALM      29.96R
6HR MIN TEMP:  38; 6HR MAX TEMP:  46;

GAINESVILLE    CLOUDY    33  30  86 CALM      29.98R
6HR MIN TEMP:  33; 6HR MAX TEMP:  46;

BOWIE          CLOUDY    34  32  91 CALM      29.97R
6HR MIN TEMP:  34; 6HR MAX TEMP:  46;

BRIDGEPORT     CLOUDY    39  35  85 SW6       30.00R WCI  34
6HR MIN TEMP:  34; 6HR MAX TEMP:  46;

DECATUR        CLOUDY    38  32  81 CALM      29.98R
6HR MIN TEMP:  37; 6HR MAX TEMP:  46;

DENTON         CLOUDY    36  32  85 W8        29.97R WCI  30
6HR MIN TEMP:  36; 6HR MAX TEMP:  44;

MCKINNEY       CLEAR     39  32  76 N5        29.95R WCI  36
6HR MIN TEMP:  38; 6HR MAX TEMP:  49;

BONHAM         CLEAR     37  32  81 W3        29.95R
GREENVILLE     CLEAR     41  32  70 N7        29.95R WCI  36
ROCKWALL       CLEAR     42  33  69 N5        29.95R WCI  40
6HR MIN TEMP:  42; 6HR MAX TEMP:  51;

TERRELL        CLEAR     44  31  60 N7        29.96R
6HR MIN TEMP:  43; 6HR MAX TEMP:  51;

WAXAHACHIE     CLEAR     40  35  80 W3        29.99R
6HR MIN TEMP:  40; 6HR MAX TEMP:  47;

CLEBURNE       CLOUDY    39  36  87 NW6       30.00S WCI  35
GRANBURY       CLOUDY    38  34  85 CALM      30.01S
6HR MIN TEMP:  38; 6HR MAX TEMP:  46;

$$

TXZ083>090-098>101-113>116-127>130-139>142-154-155-231300-
WESTERN NORTH TEXAS

CITY           SKY/WX    TMP DP  RH WIND       PRES   REMARKS
WICHITA FALLS  CLOUDY    34  31  88 SW6       29.97R WCI  29
6HR MIN TEMP:  33; 6HR MAX TEMP:  44;

WF-KICKAPOO    CLOUDY    37  34  89 CALM      29.99R
6HR MIN TEMP:  37; 6HR MAX TEMP:  45;

VERNON         CLOUDY    34  29  81 SW5       29.97S WCI  30
6HR MIN TEMP:  34; 6HR MAX TEMP:  56;

ABILENE        CLOUDY    33  31  92 S6        29.98S WCI  28
6HR MIN TEMP:  33; 6HR MAX TEMP:  42;

ABILENE-DYESS  CLEAR     32  30  90 CALM      29.97S
6HR MIN TEMP:  32; 6HR MAX TEMP:  43;

GRAHAM         CLOUDY    32  32 100 CALM      29.98S
BRECKENRIDGE   CLOUDY    38  31  76 CALM      29.98S
6HR MIN TEMP:  36; 6HR MAX TEMP:  47;

CISCO          CLOUDY    39  30  70 SW5       29.98F WCI  36
RANGER         CLOUDY    37  32  81 W6        29.98S WCI  33
MINERAL WELLS  CLOUDY    35  31  85 CALM      29.97S
6HR MIN TEMP:  35; 6HR MAX TEMP:  45;

STEPHENVILLE   CLOUDY    39  32  77 CALM      30.01R
6HR MIN TEMP:  38; 6HR MAX TEMP:  48;

COMANCHE       CLOUDY    47  32  55 W5        29.99S
6HR MIN TEMP:  46; 6HR MAX TEMP:  50;

BROWNWOOD      CLOUDY    32  32 100 CALM      30.01R
COLEMAN        CLOUDY    36  30  80 W5        30.00S WCI  32
$$

TXZ143>147-156>162-174-175-231300-
CENTRAL TEXAS

CITY           SKY/WX    TMP DP  RH WIND       PRES   REMARKS
WACO           CLEAR     39  34  82 W8        29.99R WCI  33
6HR MIN TEMP:  37; 6HR MAX TEMP:  49;

WACO-MCGREGOR  CLEAR     43  35  73 NW7       29.99S WCI  39
6HR MIN TEMP:  42; 6HR MAX TEMP:  49;

CORSICANA      CLEAR     43  34  70 NW8       29.98R WCI  38
6HR MIN TEMP:  43; 6HR MAX TEMP:  51;

MEXIA          CLEAR     42  34  73 W13       29.97R WCI  35
6HR MIN TEMP:  41; 6HR MAX TEMP:  49;

HEARNE         CLEAR     40  37  89 W3        30.00S
6HR MIN TEMP:  39; 6HR MAX TEMP:  49;

CAMERON        CLEAR     45  35  69 W7        29.99S
6HR MIN TEMP:  45; 6HR MAX TEMP:  50;

TEMPLE         CLEAR     41  35  79 NW5       30.00R WCI  38
6HR MIN TEMP:  39; 6HR MAX TEMP:  50;

KILLEEN        CLEAR     46  34  62 CALM      29.99R
6HR MIN TEMP:  44; 6HR MAX TEMP:  55;

KILLEEN-SKYLRK CLEAR     42  34  73 NW3       30.00R
6HR MIN TEMP:  40; 6HR MAX TEMP:  51;

FORT HOOD      CLEAR     42  33  70 NW6       29.96S WCI  39
6HR MIN TEMP:  42; 6HR MAX TEMP:  52;

GATESVILLE     CLEAR     37  34  87 CALM      30.02R
HAMILTON       CLEAR     42  32  68 W7        29.99S WCI  38
6HR MIN TEMP:  41; 6HR MAX TEMP:  47;

LAMPASAS       CLEAR     40  34  79 CALM      29.99S
6HR MIN TEMP:  38; 6HR MAX TEMP:  53;

$$

TXZ095>097-106>112-122>126-135>138-148>153-164>167-231300-
EAST TEXAS

CITY           SKY/WX    TMP DP  RH WIND       PRES   REMARKS
PARIS          CLEAR     37  30  75 NW13      29.91F WCI  29
6HR MIN TEMP:  37; 6HR MAX TEMP:  48;

SULPHUR SPRNGS CLEAR     42  34  73 N12       29.95R WCI  36
6HR MIN TEMP:  42; 6HR MAX TEMP:  50;

MOUNT PLEASANT CLEAR     41  33  73 NW10      29.92R WCI  35
6HR MIN TEMP:  41; 6HR MAX TEMP:  50;

GILMER         CLOUDY    42  32  67 NW9       29.90R WCI  37
6HR MIN TEMP:  42; 6HR MAX TEMP:  51;

MINEOLA        CLEAR     43  34  70 NW8G20    29.93R WCI  38
TYLER          CLEAR     44  33  65 NW9       29.92R WCI  39
6HR MIN TEMP:  44; 6HR MAX TEMP:  52;

LONGVIEW       CLEAR     43  34  70 NW10      29.88R WCI  37
6HR MIN TEMP:  43; 6HR MAX TEMP:  53;

MARSHALL       CLEAR     42  33  70 NW7       29.89R WCI  38
6HR MIN TEMP:  42; 6HR MAX TEMP:  53;

ATHENS         CLEAR     43  32  65 NW5       29.94R
PALESTINE      CLEAR     44  35  69 NW8       29.95R WCI  39
JACKSONVILLE   CLEAR     45  34  64 NW6       29.91S
HENDERSON      CLEAR     44  33  63 NW7       29.90R
6HR MIN TEMP:  44; 6HR MAX TEMP:  53;

CENTER         SUNNY     47  33  59 NW5       29.88R
6HR MIN TEMP:  47; 6HR MAX TEMP:  55;

NACOGDOCHES    CLEAR     45  32  61 NW8       29.88R
6HR MIN TEMP:  45; 6HR MAX TEMP:  54;

LUFKIN         CLEAR     45  34  65 W6        29.90R
6HR MIN TEMP:  45; 6HR MAX TEMP:  53;

$$

SUPPLEMENTAL OBSERVATIONS (CENTRAL)

CITY           SKY/WX    TMP DP  RH WIND       PRES   REMARKS
DENISON DAM      N/A     43  32  65 VRB5        N/A
CADDO GRASSLND   N/A     37  32  81 N3          N/A
PAT MAYSE LAKE   N/A     36  32  87 NW6         N/A  WCI  31
GREENVILLE       N/A     39  32  75 N9          N/A  WCI  33
CEDAR HILL       N/A     39  34  81 S1          N/A
ATHENS           N/A     43  32  65 NW1         N/A
LAKE LIMESTONE   N/A     41  36  81 W5          N/A  WCI  38
MCGREGOR         N/A     39  32  75 W3          N/A
T


USA.gov is the U.S. government's official web portal to all federal, state and local government web resources and services.